Location: Powder Track
(41.8531°N, 72.3584°W)
Time: 00:14:38
(UTC+00:00)

Transit 2A Rocket - Visible Passes

Search period start: 29 July 2021 00:00
Search period end: 08 August 2021 00:00
Orbit: 589 x 913 km, 66.7° (Epoch: 28 July)

Date Brightness Start Highest point End Pass type
(mag) Time Alt. Az. Time Alt. Az. Time Alt. Az.
29 Jul 7.1 02:57:58 10° N 03:01:53 20° NE 03:04:36 14° ENE visible
29 Jul 5.3 04:39:30 10° NNW 04:44:28 72° NW 04:44:28 72° NW visible
30 Jul 7.5 02:16:13 10° N 02:18:47 13° NE 02:21:26 10° ENE visible
30 Jul 5.4 03:56:55 10° NNW 04:02:24 61° ENE 04:02:37 61° ENE visible
30 Jul 7.1 05:40:24 10° WNW 05:42:29 18° WNW 05:42:29 18° WNW visible
31 Jul 6.1 03:14:29 10° NNW 03:19:38 38° NE 03:20:48 35° E visible
31 Jul 6.4 04:57:06 10° NW 05:00:41 31° W 05:00:41 31° W visible
01 Aug 6.7 02:32:13 10° N 02:36:45 25° NE 02:39:03 20° E visible
01 Aug 5.6 04:14:11 10° NW 04:18:55 55° W 04:18:55 55° W visible
02 Aug 7.2 01:50:10 10° N 01:53:44 17° NE 01:57:20 10° E visible
02 Aug 5.1 03:31:29 10° NNW 03:37:05 83° ENE 03:37:12 82° E visible
02 Aug 7.4 05:15:51 10° WNW 05:17:05 13° W 05:17:05 13° W visible
03 Aug 7.4 01:08:41 10° NNE 01:10:35 12° NE 01:12:31 10° NE visible
03 Aug 5.6 02:48:57 10° NNW 02:54:23 52° NE 02:55:32 45° E visible
03 Aug 6.8 04:32:05 10° NW 04:35:25 24° W 04:35:25 24° W visible
04 Aug 6.3 02:06:34 10° NNW 02:11:34 33° NE 02:13:54 25° E visible
04 Aug 5.9 03:48:56 10° NW 03:53:48 43° W 03:53:48 43° W visible
05 Aug 6.8 01:24:21 10° N 01:28:38 22° NE 01:32:19 13° E visible
05 Aug 5.2 03:06:06 10° NW 03:11:44 73° WSW 03:12:13 69° SSW visible
06 Aug 7.2 00:42:25 10° N 00:45:34 15° NE 00:48:50 10° ENE visible
06 Aug 5.3 02:23:28 10° NNW 02:29:05 70° ENE 02:30:40 48° SE visible
06 Aug 7.1 04:07:17 10° WNW 04:10:34 19° W 04:10:34 19° W visible
07 Aug 5.8 01:41:00 10° NNW 01:46:21 44° NE 01:49:11 26° ESE visible
07 Aug 6.4 03:23:50 10° NW 03:28:50 32° WSW 03:29:04 32° WSW visible
